Location: Musselburgh
(55.9419°N, 3.0539°W)
Time: 03:18:10
(UTC+01:00)

N. Korean satellite - Visible Passes

Search period start: 03 October 2022 00:00
Search period end: 13 October 2022 00:00
Orbit: 426 x 468 km, 97.3° (Epoch: 02 October)

Date Brightness Start Highest point End Pass type
(mag) Time Alt. Az. Time Alt. Az. Time Alt. Az.
03 Oct 8.3 06:10:48 10° NNE 06:13:50 33° E 06:16:50 10° SSE visible
04 Oct 9.6 05:35:41 10° NE 05:37:40 15° E 05:39:37 10° SE visible
05 Oct 7.1 06:31:30 10° NNE 06:34:46 57° ESE 06:37:59 10° S visible
06 Oct 9.0 05:55:54 10° NE 05:58:37 23° E 06:01:18 10° SSE visible
07 Oct 10.1 05:21:31 10° ENE 05:22:14 11° E 05:22:58 10° E visible
08 Oct 8.0 06:16:13 10° NNE 06:19:20 38° E 06:22:24 10° SSE visible
09 Oct 9.6 05:40:46 10° NE 05:42:59 17° E 05:45:11 10° SE visible
10 Oct 6.8 06:36:32 10° NNE 06:39:49 65° ESE 06:43:04 10° S visible
11 Oct 8.8 06:00:39 10° NE 06:03:28 26° E 06:06:17 10° SSE visible
12 Oct 9.9 05:25:39 10° ENE 05:26:55 12° E 05:28:13 10° ESE visible
12 Oct 6.3 06:56:47 10° N 07:00:04 74° WNW 07:03:21 10° SSW visible
